Temperature
23 21 21 21 21 22 22 22 21 21 20 19 18 18 18 17 17 17 17 17 17 18 18 18 18 18 18 17 18 18 18 18 18 17 17 17 17 16 16 15 15 15 14 14
22 21 22 23 22 22 21 21 21 21 20 20 18 18 18 17 17 17 17 17 17 17 17 17 17 17 17 18 18 18 18 18 18 17 17 17 17 16 16 15 15 14 14 14
23 23 24 24 23 23 22 21 21 20 20 19 19 18 18 17 17 17 17 17 18 17 17 17 17 17 17 17 18 18 18 18 18 17 17 17 16 16 15 15 15 14 14 14
22 23 24 24 24 23 22 22 21 20 19 18 18 17 18 17 17 17 17 18 18 18 18 18 18 18 18 18 18 18 18 18 18 17 17 17 16 16 16 15 15 14 14 13
23 24 25 24 24 23 22 20 20 19 18 17 17 17 17 17 17 17 17 18 18 18 18 18 18 18 18 18 18 18 18 18 18 17 17 17 16 16 15 15 15 14 14 13
23 24 24 24 23 23 20 19 18 16 16 18 18 17 17 16 17 18 18 18 19 19 19 19 19 19 18 18 18 18 18 18 17 17 17 17 16 16 15 15 15 14 14 13
23 24 24 23 22 22 20 19 18 19 17 18 18 17 17 18 18 18 18 19 19 19 19 19 19 19 19 18 18 18 18 18 18 17 17 17 16 16 15 15 15 14 14 14
23 22 23 23 22 21 20 20 19 20 19 18 18 18 18 19 19 20 20 20 20 20 19 20 20 20 19 19 19 19 19 18 18 18 17 17 16 16 15 15 15 14 14 13
21 22 24 23 23 22 20 19 18 17 18 18 18 18 18 19 19 19 19 19 20 20 20 20 20 20 20 20 20 19 19 19 18 18 17 17 16 16 16 15 15 14 14 13
21 22 23 23 23 21 20 17 16 17 18 19 19 19 18 20 20 19 18 19 20 21 21 21 21 21 21 21 20 20 20 19 19 18 18 17 16 16 16 15 15 15 14 14
21 21 22 22 22 22 20 19 16 15 16 18 19 19 19 19 19 19 19 21 22 22 22 22 22 22 21 21 21 20 20 20 19 18 18 17 17 16 16 16 15 15 15 14
19 19 20 21 21 21 21 19 17 18 18 16 17 18 20 19 19 19 20 21 22 22 23 22 22 22 22 21 21 21 20 20 19 19 18 17 17 16 16 16 16 15 15 15
19 19 20 21 20 21 21 19 17 15 15 15 17 19 19 18 19 20 20 22 22 23 23 23 22 22 22 22 22 21 21 20 20 19 18 18 17 17 17 16 16 16 15 15
19 18 19 20 20 20 21 20 17 16 16 16 16 18 19 19 18 19 20 21 22 23 23 23 23 23 23 22 22 22 21 21 20 19 19 18 18 17 17 17 16 16 16 15
19 19 19 19 20 20 21 21 19 18 17 17 18 18 18 18 17 19 20 21 21 22 23 23 23 23 23 23 22 22 21 21 20 20 19 19 18 18 17 17 17 16 16 16
17 19 20 21 21 20 20 21 20 19 19 18 18 18 18 17 18 18 19 19 20 21 22 23 23 23 23 23 23 22 22 21 21 20 20 19 19 18 18 17 17 17 16 16
16 18 18 19 19 21 20 20 20 19 19 18 18 18 17 16 16 17 17 18 19 20 21 22 22 23 22 23 22 22 21 21 21 20 20 19 19 18 18 18 17 17 17 16
16 16 15 17 19 20 19 19 19 18 18 17 16 16 16 16 16 16 17 18 19 19 20 21 22 22 22 22 22 22 21 21 20 20 20 19 19 19 18 18 17 17 17 16
15 15 15 15 18 18 19 18 18 18 18 17 16 16 16 17 17 16 16 17 18 19 19 20 21 21 21 22 21 21 21 20 20 20 19 19 19 18 18 18 17 17 17 16
14 14 15 15 18 18 19 18 18 18 18 17 16 15 16 16 16 15 16 17 18 19 19 20 20 20 21 20 20 20 20 20 19 19 19 19 18 18 18 17 17 17 16 16
16 15 15 15 16 17 18 17 18 18 18 17 16 16 16 14 14 15 16 17 17 18 18 19 19 19 19 19 19 19 19 19 19 18 18 18 17 17 17 17 16 16 16 15
16 15 15 14 16 17 17 17 17 16 16 16 16 16 16 15 15 15 16 16 17 17 18 18 18 18 18 18 18 18 17 17 17 17 17 17 17 16 16 16 15 15 15 15
14 15 14 14 16 16 16 16 17 17 16 16 16 16 16 15 15 15 15 16 16 16 16 17 17 16 16 16 16 16 16 16 16 16 16 16 15 15 15 15 14 14 14 14
14 13 13 13 14 15 16 16 16 17 17 17 16 16 16 15 15 15 15 15 15 15 15 15 15 15 15 14 15 15 14 14 15 14 14 14 14 14 13 13 13 13 13 13
15 13 13 14 14 15 16 16 16 17 17 16 16 16 16 15 15 15 14 14 14 14 14 14 14 14 13 13 13 13 13 13 13 13 13 13 13 12 12 12 12 12 12 11
13 13 14 15 15 14 15 16 16 16 16 16 16 15 15 15 15 14 14 14 14 13 13 13 13 13 12 12 12 12 12 12 12 12 12 12 11 11 11 11 11 11 11 11
Wind_Speed
1 2 5 8 9 8 5 5 6 4 2 3 5 6 4 4 5 6 6 6 7 7 5 7 7 8 8 7 7 7 8 7 7 4 4 4 3 2 2 3 4 5 5 5
3 6 9 5 4 5 5 4 4 1 1 2 2 5 3 4 6 6 6 7 7 6 7 8 8 9 9 9 8 8 8 8 7 5 4 3 3 2 2 1 2 4 4 5
7 8 3 2 2 2 3 5 4 3 2 3 2 5 3 3 3 4 5 5 6 9 9 9 9 9 9 10 10 10 8 8 7 6 5 4 4 3 2 1 1 2 4 4
8 7 3 2 3 4 4 4 4 4 3 2 2 3 5 3 4 6 6 6 7 8 8 9 10 10 11 11 9 8 8 8 7 7 7 7 5 4 4 3 2 2 2 3
7 3 2 4 5 5 3 4 5 4 4 2 3 0 7 1 5 8 9 9 8 9 10 11 12 12 10 9 8 8 8 7 7 7 8 7 5 3 2 2 2 1 1 2
8 4 4 3 2 4 6 6 6 6 5 2 2 1 6 4 7 6 7 9 9 10 10 9 8 8 7 8 8 8 8 7 7 8 7 8 8 6 5 4 3 2 1 1
6 4 2 4 4 3 4 5 4 5 5 5 2 2 8 7 7 7 9 10 11 10 10 10 10 10 10 10 10 9 9 8 8 8 8 8 8 8 7 6 5 4 2 2
4 6 3 3 6 6 4 7 6 4 4 5 2 5 8 5 5 5 6 7 9 10 11 12 12 12 11 11 10 11 11 9 9 9 8 7 7 6 5 6 5 5 4 4
8 6 2 0 2 7 6 3 5 6 2 2 5 7 8 2 1 3 5 7 9 11 12 12 12 12 12 12 12 12 12 10 10 10 8 7 7 7 7 6 5 4 4 4
9 4 2 0 4 5 4 8 6 5 3 3 6 5 5 6 5 5 7 9 10 10 10 11 11 12 12 11 11 10 11 12 10 10 9 8 8 8 7 6 6 6 5 4
5 5 2 2 2 4 4 4 5 4 4 5 3 7 6 8 8 9 11 10 11 12 12 12 11 11 10 9 9 11 11 10 9 10 9 9 8 8 7 7 7 7 6 6
4 5 1 4 2 2 4 6 7 4 4 4 4 8 6 6 7 8 10 10 9 10 11 10 10 9 10 11 10 11 12 12 11 11 10 9 8 8 8 8 8 7 7 7
6 6 3 4 4 1 2 4 5 6 5 5 4 8 4 2 2 6 7 8 8 9 9 9 9 10 12 12 12 12 12 13 11 10 10 9 9 9 10 10 8 8 8 7
6 5 6 8 8 5 4 4 6 6 5 5 8 9 9 6 5 6 7 8 7 8 9 9 10 11 11 12 12 12 12 12 11 11 11 11 12 12 11 10 9 9 8 8
5 4 5 6 5 3 5 6 7 8 8 9 8 8 9 6 7 7 6 6 6 7 7 10 11 11 10 10 11 12 12 11 11 12 12 13 11 10 9 9 9 9 9 9
3 4 3 3 2 4 4 6 6 7 5 7 6 8 5 4 3 2 2 2 3 5 6 7 8 9 11 12 12 11 11 11 11 13 14 11 10 10 10 10 9 9 9 9
3 5 4 3 3 1 5 6 6 5 5 6 8 6 2 2 3 3 3 3 1 3 3 4 5 7 9 10 10 11 11 9 10 11 10 9 10 10 11 10 9 10 10 9
6 5 4 1 2 5 7 2 3 4 3 4 4 3 2 2 1 3 5 4 4 4 3 1 2 3 5 5 6 7 7 8 9 9 9 8 9 10 9 9 10 10 8 8
4 6 4 3 2 6 6 3 3 3 4 4 5 3 1 1 2 5 7 6 5 5 4 2 1 1 1 2 3 5 5 6 7 9 9 9 10 10 9 10 11 9 8 9
6 5 5 4 3 6 7 2 2 3 4 4 3 2 1 3 2 2 7 7 8 8 7 7 6 7 6 3 4 5 4 4 6 7 7 6 7 8 9 10 9 7 8 10
3 4 3 4 4 8 5 1 4 3 6 1 3 2 2 3 2 0 4 7 8 9 10 10 11 11 8 5 6 4 2 2 3 2 2 3 5 7 8 7 6 6 7 7
6 5 4 4 3 7 2 4 6 6 1 2 3 3 5 6 5 5 7 8 10 10 11 12 12 11 9 8 6 5 2 2 2 2 1 1 2 4 4 4 5 5 6 7
6 7 6 8 7 5 2 4 2 3 3 2 3 5 8 8 7 7 8 9 10 10 10 10 11 11 9 8 7 6 4 4 3 3 3 2 2 1 1 2 3 3 4 6
3 3 4 4 7 5 4 3 2 4 4 6 7 8 9 10 8 8 8 8 9 10 10 10 11 11 9 8 8 6 5 5 5 5 4 3 3 2 2 2 2 3 4 5
5 6 3 5 6 3 3 3 5 6 9 11 9 8 9 11 9 7 7 7 7 7 7 8 8 8 7 7 8 7 6 5 6 5 4 4 3 3 3 3 3 4 5 6
4 7 7 7 7 5 4 4 7 9 10 11 12 9 8 9 9 8 7 5 6 6 6 7 7 6 5 6 6 7 6 5 5 5 5 4 3 3 3 4 5 6 7 11
Wind_Direction
63 47 256 241 211 218 233 240 255 253 172 170 233 255 244 193 209 216 199 191 190 195 180 165 154 153 155 160 160 159 150 147 143 137 136 137 147 147 147 169 167 156 147 139
2 273 248 244 216 207 212 238 260 282 116 158 254 273 257 204 217 223 211 202 195 177 166 168 162 160 167 176 176 167 164 161 164 155 147 143 135 140 147 148 162 177 167 157
225 252 277 297 289 193 219 206 226 201 79 48 1 319 278 241 235 239 228 204 192 181 178 178 173 172 173 186 186 179 174 167 164 146 122 102 83 72 89 137 188 209 192 180
238 259 260 280 270 182 253 242 177 137 105 332 29 301 288 249 257 243 234 213 197 186 180 181 176 177 188 196 184 172 172 166 161 154 153 152 157 170 193 185 189 204 199 193
250 238 257 268 257 180 184 65 90 91 104 28 17 280 289 291 252 242 227 217 204 189 183 186 186 186 189 186 178 171 166 166 164 163 163 156 155 166 155 149 169 185 217 210
252 245 227 220 41 114 119 74 56 52 63 347 269 184 281 237 226 235 219 211 205 197 190 191 189 177 178 176 174 169 169 175 170 167 166 165 166 163 159 170 175 189 212 237
295 288 218 134 101 67 91 88 25 354 1 270 247 224 254 249 228 216 209 207 200 194 191 191 189 186 185 183 181 176 178 183 178 173 175 177 176 173 179 182 185 185 191 206
238 285 244 184 169 173 173 145 159 212 243 285 299 251 257 258 242 217 194 192 189 188 193 196 196 194 194 192 186 182 186 189 182 181 185 182 178 177 186 188 184 189 196 204
194 243 300 137 149 138 138 155 157 134 142 298 288 287 302 269 242 192 179 179 190 194 196 200 198 196 196 195 193 190 190 190 188 187 183 184 184 186 189 187 184 189 199 204
167 214 285 355 83 45 123 140 104 118 150 269 298 289 264 252 219 197 194 197 205 201 200 203 200 200 202 200 196 188 190 194 190 185 186 192 191 193 187 180 190 199 204 202
147 161 308 45 160 174 116 106 107 115 152 166 263 277 234 224 208 200 208 207 204 202 203 204 204 202 200 195 190 190 192 191 187 188 189 188 191 191 187 193 202 202 203 202
142 126 209 267 269 173 164 167 150 154 214 179 193 267 277 236 221 207 211 212 208 208 207 203 200 193 192 193 193 194 194 194 195 189 187 192 190 186 192 204 209 203 206 209
135 118 83 349 341 346 154 158 149 127 122 157 183 262 302 358 260 229 224 222 213 209 208 201 195 195 199 198 195 195 195 197 191 182 186 192 193 194 201 208 208 205 208 211
118 125 166 197 218 205 209 187 157 140 160 200 222 252 289 310 290 264 244 233 223 216 210 204 203 205 203 200 196 195 198 194 186 182 188 197 202 202 205 206 206 208 209 210
115 160 206 231 233 193 215 217 185 191 196 197 231 234 262 273 272 268 254 232 223 226 219 213 210 209 202 199 198 197 196 191 185 185 195 206 205 201 203 206 210 212 212 217
100 158 177 263 246 213 248 252 210 213 213 223 247 262 269 293 300 303 295 198 217 237 229 218 211 206 202 201 200 197 197 192 183 191 202 204 197 199 206 211 212 213 217 219
124 137 144 251 314 34 260 242 210 210 210 199 221 246 323 343 11 2 14 37 340 282 267 236 214 211 209 203 196 197 199 181 184 199 203 198 198 206 213 214 212 217 220 219
136 125 137 164 66 237 250 276 191 194 235 222 239 262 262 200 121 52 34 30 8 351 336 285 234 225 217 196 189 185 165 172 190 203 209 205 202 212 213 211 218 222 218 218
129 134 121 127 199 274 286 236 168 171 260 220 222 246 250 152 81 42 20 17 15 359 344 331 360 79 104 151 162 145 156 171 190 208 214 211 207 211 210 215 222 221 218 224
65 90 116 135 177 243 253 210 143 107 279 237 199 228 356 49 73 357 353 8 18 24 26 29 40 50 52 61 111 127 155 174 210 221 223 212 203 209 216 222 224 220 220 231
67 66 122 164 219 261 255 169 119 166 250 258 149 139 82 92 139 268 11 32 32 36 40 46 52 50 40 52 94 101 104 209 233 212 198 196 204 212 220 225 225 224 227 235
170 158 175 151 204 260 231 141 177 217 277 94 106 108 106 107 89 65 51 46 44 43 43 50 55 47 33 35 64 70 30 340 45 92 140 214 221 231 229 224 236 234 232 242
190 188 185 190 215 238 225 209 212 163 137 124 120 116 116 102 84 70 59 54 52 50 48 52 60 54 39 31 49 55 7 9 39 49 38 18 13 317 278 241 248 254 242 247
236 158 163 241 261 246 240 220 169 147 130 120 117 117 114 103 88 78 69 60 57 53 51 53 59 55 39 28 38 40 23 34 54 49 33 30 28 1 333 306 277 262 259 259
217 167 190 252 269 279 254 186 150 123 112 108 104 106 113 108 99 93 83 70 65 63 59 63 68 63 43 30 31 25 25 48 57 48 36 26 17 353 336 322 287 272 260 256
200 182 184 228 230 192 210 164 142 129 125 125 118 104 100 106 109 100 89 79 74 69 65 65 61 56 37 30 25 16 18 40 51 37 20 9 356 346 339 330 322 293 278 286
Height
1505 1509 1511 1507 1505 1504 1505 1509 1511 1507 1502 1506 1508 1507 1505 1505 1506 1507 1507 1509 1511 1512 1515 1518 1521 1525 1529 1532 1535 1538 1541 1544 1547 1549 1551 1552 1554 1555 1556 1556 1557 1556 1556 1555
1509 1509 1499 1496 1497 1501 1504 1509 1509 1505 1502 1505 1509 1507 1504 1504 1504 1505 1505 1506 1508 1510 1513 1517 1520 1523 1527 1530 1534 1537 1540 1543 1546 1548 1550 1552 1553 1554 1555 1555 1556 1556 1556 1555
1508 1500 1493 1495 1497 1501 1503 1506 1505 1507 1506 1507 1509 1510 1506 1503 1503 1503 1504 1505 1506 1508 1511 1514 1517 1521 1525 1529 1532 1536 1539 1542 1545 1547 1549 1551 1552 1553 1554 1554 1554 1555 1555 1554
1503 1494 1493 1494 1496 1497 1505 1498 1499 1504 1512 1519 1515 1525 1509 1504 1502 1501 1501 1503 1504 1507 1510 1513 1516 1520 1523 1527 1531 1535 1538 1541 1544 1546 1548 1549 1550 1551 1552 1553 1553 1553 1554 1553
1499 1493 1493 1495 1493 1493 1498 1497 1501 1507 1513 1520 1519 1524 1515 1505 1504 1499 1498 1500 1502 1505 1508 1511 1515 1518 1522 1526 1530 1534 1537 1540 1542 1545 1546 1548 1549 1550 1550 1551 1551 1552 1552 1552
1492 1489 1489 1489 1490 1491 1496 1502 1508 1516 1521 1529 1520 1524 1518 1507 1500 1495 1494 1496 1499 1502 1506 1510 1514 1517 1521 1525 1529 1532 1535 1538 1541 1543 1545 1546 1547 1548 1548 1549 1549 1550 1550 1551
1496 1489 1486 1487 1493 1495 1498 1513 1529 1529 1536 1531 1519 1521 1514 1494 1490 1490 1491 1493 1496 1500 1504 1508 1511 1515 1518 1522 1526 1530 1533 1536 1539 1541 1543 1544 1545 1546 1546 1547 1547 1548 1549 1549
1505 1503 1488 1485 1489 1496 1499 1508 1527 1535 1537 1530 1519 1519 1502 1488 1486 1486 1488 1491 1494 1498 1502 1505 1509 1513 1516 1520 1524 1527 1531 1534 1536 1539 1540 1542 1543 1544 1544 1545 1545 1546 1547 1548
1503 1501 1485 1483 1484 1488 1499 1506 1508 1523 1528 1532 1522 1511 1495 1485 1485 1485 1487 1490 1492 1495 1499 1503 1507 1510 1514 1518 1521 1525 1528 1531 1534 1536 1538 1540 1541 1542 1542 1543 1543 1544 1545 1545
1489 1497 1488 1484 1485 1489 1492 1502 1515 1524 1533 1534 1522 1515 1507 1489 1486 1485 1486 1488 1490 1493 1497 1500 1504 1508 1511 1515 1519 1522 1525 1528 1531 1533 1535 1537 1538 1539 1540 1541 1541 1542 1543 1543
1484 1495 1493 1489 1491 1494 1498 1503 1512 1523 1525 1532 1532 1517 1488 1484 1481 1482 1483 1484 1487 1490 1493 1497 1501 1505 1509 1512 1516 1519 1522 1525 1528 1530 1532 1534 1536 1537 1538 1539 1539 1540 1540 1541
1484 1495 1501 1494 1488 1487 1490 1497 1508 1517 1521 1526 1528 1515 1479 1478 1477 1478 1479 1481 1484 1487 1490 1494 1498 1502 1505 1508 1511 1515 1518 1521 1524 1527 1529 1531 1533 1534 1535 1536 1537 1537 1538 1538
1483 1495 1508 1505 1501 1492 1491 1494 1500 1509 1519 1527 1527 1508 1478 1477 1476 1477 1478 1479 1481 1484 1487 1491 1494 1497 1500 1503 1507 1510 1513 1517 1520 1523 1525 1527 1529 1530 1531 1533 1534 1534 1535 1536
1477 1491 1501 1507 1502 1492 1492 1493 1498 1505 1516 1520 1514 1499 1483 1478 1477 1476 1475 1476 1478 1481 1483 1486 1489 1492 1495 1498 1502 1505 1509 1512 1516 1518 1520 1522 1524 1526 1528 1530 1530 1531 1532 1532
1477 1489 1489 1488 1485 1486 1487 1488 1492 1497 1498 1504 1496 1493 1482 1478 1476 1474 1473 1474 1476 1477 1479 1481 1484 1487 1490 1493 1497 1500 1504 1508 1511 1514 1516 1518 1521 1523 1524 1526 1527 1528 1529 1529
1479 1486 1487 1486 1482 1484 1486 1483 1485 1488 1488 1490 1489 1486 1477 1476 1474 1473 1471 1472 1473 1474 1475 1476 1479 1481 1484 1488 1491 1495 1499 1503 1506 1509 1511 1514 1517 1518 1520 1521 1523 1524 1525 1525
1483 1487 1493 1496 1488 1485 1491 1482 1481 1482 1480 1483 1486 1481 1477 1476 1474 1473 1472 1472 1472 1473 1473 1474 1476 1478 1481 1484 1487 1491 1494 1498 1501 1504 1507 1510 1512 1514 1515 1517 1518 1519 1520 1521
1483 1489 1496 1498 1493 1500 1487 1476 1475 1478 1478 1478 1478 1476 1476 1475 1475 1475 1474 1473 1472 1472 1472 1472 1474 1476 1478 1481 1484 1488 1491 1495 1497 1500 1502 1505 1507 1509 1511 1513 1513 1514 1515 1516
1479 1487 1497 1503 1502 1495 1482 1475 1476 1478 1478 1474 1475 1474 1473 1473 1474 1476 1475 1474 1473 1472 1472 1472 1472 1474 1477 1479 1482 1485 1488 1491 1493 1495 1498 1500 1502 1504 1506 1507 1508 1509 1510 1510
1482 1485 1495 1501 1499 1500 1482 1473 1473 1477 1480 1472 1472 1473 1473 1473 1478 1480 1477 1475 1474 1473 1472 1472 1472 1474 1475 1478 1481 1483 1485 1487 1489 1491 1493 1496 1497 1499 1500 1501 1502 1503 1504 1503
1487 1491 1495 1499 1499 1489 1474 1472 1474 1486 1481 1471 1471 1472 1473 1475 1479 1480 1477 1476 1475 1474 1473 1473 1473 1474 1476 1478 1480 1481 1483 1484 1486 1488 1490 1491 1492 1493 1494 1495 1496 1497 1497 1496
1486 1492 1495 1500 1499 1492 1471 1471 1475 1475 1471 1471 1471 1473 1474 1475 1478 1478 1478 1477 1476 1476 1475 1475 1475 1476 1478 1479 1479 1480 1482 1483 1484 1485 1486 1487 1487 1488 1488 1489 1489 1490 1489 1489
1480 1481 1483 1485 1482 1471 1469 1469 1469 1470 1470 1471 1472 1473 1474 1476 1478 1480 1480 1479 1479 1478 1478 1477 1478 1479 1480 1481 1480 1480 1481 1481 1482 1482 1482 1482 1482 1483 1483 1483 1483 1482 1482 1481
1474 1474 1476 1477 1470 1467 1466 1466 1467 1468 1469 1471 1473 1475 1476 1478 1480 1482 1483 1482 1482 1481 1481 1481 1481 1482 1482 1482 1481 1481 1481 1480 1480 1479 1479 1479 1479 1479 1479 1478 1477 1476 1475 1474
1469 1472 1474 1473 1467 1465 1464 1465 1466 1468 1469 1472 1475 1477 1478 1480 1483 1484 1485 1485 1485 1485 1485 1485 1485 1485 1485 1484 1483 1482 1481 1480 1479 1478 1478 1477 1477 1476 1475 1474 1473 1471 1470 1469
1467 1468 1470 1468 1462 1463 1463 1464 1466 1468 1470 1473 1476 1479 1481 1483 1485 1486 1487 1488 1488 1488 1488 1488 1487 1487 1486 1485 1484 1483 1482 1480 1479 1478 1477 1476 1475 1473 1471 1470 1468 1466 1465 1463